Погода в Беломестной Двойне

Россия / Тамбовская область     52°41′45″N   41°03′44″E
темп.,
°C
ветер,
м/с
пор.,
м/с
влажн.,
%
обл.,
%
осадки,
мм/ч
давл.,
гПа
погр.,
м
9 марта, вт
вт900:00−13зсз23870 0.0 100920
03:00−14сз23900 0.0 101020
06:00−15ссз349529 0.0 101131
09:00−13ссз479463 0.1 1013265
12:00−11ссз469289 0.0 1014332
15:00−11сз479187 0.0 1015443
18:00−13сз489598 0.0 1017195
21:00−16сз479783 0.0 1019121
10 марта, ср
ср1000:00−18сз479716 0.0 1020119
03:00−19сз479951 0.0 1021113
06:00−22сз499887 0.0 1023159
09:00−21сз589652 0.0 1025264
12:00−19сз479260 0.0 1025332
15:00−17ссз468941 0.0 1026404
18:00−21сз349613 0.0 102639
21:00−23ссз34977 0.0 102834
11 марта, чт
чт1100:00−24с2310013 0.0 103021
03:00−25с23996 0.0 103120
06:00−26с23980 0.0 103220
09:00−23с23940 0.0 103387
12:00−18ссз23830 0.0 1033233
15:00−16сз23840 0.0 1033233
18:00−19сз23890 0.0 103220
21:00−20ссз33860 0.0 103323
12 марта, пт
пт1200:00−21с22860 0.0 103420
03:00−22сз11830 0.0 103420
06:00−22зюз01800 0.0 103420
09:00−17ю12800 0.0 103452
12:00−13ююв23780 0.0 1034236
15:00−12ю35860 0.0 1033249
18:00−15ююв44920 0.0 103271
21:00−16ююв510959 0.0 1032148
13 марта, сб
сб1300:00−16ююв61092100 0.0 1032190
03:00−15ююв61292100 0.0 1030225
06:00−14ююв61389100 0.0 1029270
09:00−10ю81580100 0.0 1028527
12:00−7ю91573100 0.0 1027788
15:00−6ю81470100 0.0 1026894
18:00−6ю71473100 0.0 1025524
21:00−6ю71575100 0.0 1024573